EW1587 Weather Reports


time (UTC)temp
C
wind
direction
speed
KPH
gust
KPH
rain 1hr
cm
rain 24hr
cm
rain mn
cm
humidity
%
barometer
mb
20260504020529 15 261 0.0 3.2 0.00 0.00 0.00 38 1003.3
20260504020028 15 269 0.0 3.2 0.00 0.00 0.00 38 1003.3
20260504015529 15 277 0.0 3.2 0.00 0.00 0.00 37 1003.4
20260504015029 15 257 0.0 3.2 0.00 0.00 0.00 37 1003.4
20260504014537 15 252 1.6 3.2 0.00 0.00 0.00 37 1003.4
20260504014028 16 262 1.6 3.2 0.00 0.00 0.00 38 1003.5
20260504013526 16 278 1.6 3.2 0.00 0.00 0.00 40 1003.6
20260504013035 16 288 1.6 4.8 0.00 0.00 0.00 38 1003.6
20260504012526 16 280 1.6 6.4 0.00 0.00 0.00 43 1003.7
20260504012026 16 283 4.8 8.0 0.00 0.00 0.00 39 1003.6
20260504011526 17 283 4.8 11.3 0.00 0.00 0.00 38 1003.6
20260504011024 17 281 6.4 12.9 0.00 0.00 0.00 40 1003.7
20260504010524 17 290 9.7 16.1 0.00 0.00 0.00 35 1003.8
20260504010023 17 288 9.7 19.3 0.00 0.00 0.00 34 1003.8
20260504005523 18 290 12.9 19.3 0.00 0.00 0.00 32 1003.8
20260504005023 18 285 14.5 19.3 0.00 0.00 0.00 33 1003.9
20260504004527 18 271 12.9 22.5 0.00 0.00 0.00 33 1003.9
20260504004022 18 290 12.9 22.5 0.00 0.00 0.00 33 1003.9
20260504003522 18 284 16.1 22.5 0.00 0.00 0.00 31 1003.9
20260504003021 18 283 11.3 19.3 0.00 0.00 0.00 30 1004.0
20260504002523 18 287 12.9 20.9 0.00 0.00 0.00 29 1004.0
20260504002021 18 248 14.5 27.4 0.00 0.00 0.00 28 1004.1
20260504001521 18 287 12.9 25.7 0.00 0.00 0.00 30 1004.0
20260504001020 19 283 16.1 25.7 0.00 0.00 0.00 27 1004.0
20260504000519 19 328 11.3 25.7 0.00 0.00 0.00 28 1004.0
20260504000020 19 285 9.7 22.5 0.00 0.00 0.00 28 1004.1
20260503235521 19 294 9.7 22.5 0.00 0.00 0.00 30 1004.2
20260503235019 19 313 9.7 25.7 0.00 0.00 0.00 30 1004.3
20260503234521 19 281 16.1 27.4 0.00 0.00 0.00 30 1004.1
20260503234022 19 256 19.3 27.4 0.00 0.00 0.00 28 1004.2
20260503233519 19 274 11.3 22.5 0.00 0.00 0.00 28 1004.2
20260503233021 20 256 9.7 22.5 0.00 0.00 0.00 28 1004.2
20260503232519 20 266 11.3 22.5 0.00 0.00 0.00 27 1004.3
20260503232019 20 281 8.0 24.1 0.00 0.00 0.00 26 1004.5
20260503231519 20 311 8.0 24.1 0.00 0.00 0.00 26 1004.5
20260503231015 20 274 8.0 19.3 0.00 0.00 0.00 25 1004.4
20260503230518 20 351 8.0 19.3 0.00 0.00 0.00 25 1004.5
20260503230017 20 295 9.7 24.1 0.00 0.00 0.00 26 1004.3
20260503225513 20 323 8.0 24.1 0.00 0.00 0.00 26 1004.5
20260503225012 20 277 4.8 29.0 0.00 0.00 0.00 26 1004.6
20260503224511 20 267 12.9 29.0 0.00 0.00 0.00 26 1004.6
20260503224013 20 229 6.4 17.7 0.00 0.00 0.00 25 1004.8
20260503223510 20 315 6.4 16.1 0.00 0.00 0.00 25 1004.8
20260503223009 20 20 6.4 25.7 0.00 0.00 0.00 24 1004.9
20260503222510 20 330 8.0 20.9 0.00 0.00 0.00 24 1004.9
20260503222110 20 312 9.7 20.9 0.00 0.00 0.00 26 1004.8
20260503221509 20 266 8.0 24.1 0.00 0.00 0.00 27 1004.9
20260503221009 20 319 9.7 27.4 0.00 0.00 0.00 26 1005.0
20260503220509 20 321 11.3 27.4 0.00 0.00 0.00 27 1005.0
20260503220007 20 297 4.8 16.1 0.00 0.00 0.00 26 1005.0
20260503215506 20 290 11.3 17.7 0.00 0.00 0.00 25 1005.0
20260503215006 20 354 8.0 20.9 0.00 0.00 0.00 25 1005.1
20260503214505 20 324 8.0 22.5 0.00 0.00 0.00 25 1005.2
20260503214004 20 318 6.4 22.5 0.00 0.00 0.00 27 1005.1
20260503213503 20 293 12.9 22.5 0.00 0.00 0.00 27 1005.1
20260503213007 20 314 11.3 20.9 0.00 0.00 0.00 27 1005.3
20260503212503 20 317 6.4 12.9 0.00 0.00 0.00 26 1005.4
20260503212002 20 328 1.6 17.7 0.00 0.00 0.00 26 1005.4
20260503211500 20 267 6.4 17.7 0.00 0.00 0.00 25 1005.5
20260503211001 20 324 8.0 16.1 0.00 0.00 0.00 27 1005.6
20260503210600 20 328 8.0 30.6 0.00 0.00 0.00 27 1005.6
20260503210502 20 295 6.4 30.6 0.00 0.00 0.00 27 1005.6
20260503210100 20 356 11.3 30.6 0.00 0.00 0.00 27 1005.7
20260503205600 20 304 8.0 24.1 0.00 0.00 0.00 28 1005.7
20260503205059 20 340 6.4 19.3 0.00 0.00 0.00 28 1005.8
20260503204559 20 314 6.4 16.1 0.00 0.00 0.00 28 1005.8
20260503204059 19 326 8.0 22.5 0.00 0.00 0.00 27 1005.8
20260503203558 19 341 8.0 22.5 0.00 0.00 0.00 27 1006.0
20260503203114 20 296 8.0 24.1 0.00 0.00 0.00 27 1006.0
20260503202558 19 323 11.3 24.1 0.00 0.00 0.00 28 1006.1
20260503202058 19 319 9.7 19.3 0.00 0.00 0.00 28 1006.1
20260503201557 18 355 8.0 24.1 0.00 0.00 0.00 27 1006.2
20260503201058 19 349 8.0 24.1 0.00 0.00 0.00 25 1006.3
20260503200556 19 290 8.0 14.5 0.00 0.00 0.00 27 1006.2
20260503200056 19 20 6.4 14.5 0.00 0.00 0.00 25 1006.2
20260503195556 19 30 8.0 16.1 0.00 0.00 0.00 26 1006.3
20260503195054 19 55 4.8 19.3 0.00 0.00 0.00 28 1006.4
20260503194553 19 284 8.0 19.3 0.00 0.00 0.00 28 1006.4
20260503194052 18 311 4.8 17.7 0.00 0.00 0.00 30 1006.5
20260503193552 18 44 6.4 17.7 0.00 0.00 0.00 28 1006.6
20260503193054 18 4 6.4 17.7 0.00 0.00 0.00 27 1006.6
20260503192550 18 354 8.0 17.7 0.00 0.00 0.00 29 1006.7
20260503192050 18 1 8.0 25.7 0.00 0.00 0.00 28 1006.7
20260503191552 18 40 9.7 25.7 0.00 0.00 0.00 28 1006.8
20260503191048 18 328 8.0 20.9 0.00 0.00 0.00 28 1007.0
20260503190548 18 270 9.7 20.9 0.00 0.00 0.00 29 1007.1
20260503185548 18 34 19.3 27.4 0.00 0.00 0.00 30 1007.1
20260503185048 18 4 9.7 22.5 0.00 0.00 0.00 30 1007.1
20260503184545 18 347 11.3 22.5 0.00 0.00 0.00 32 1007.2
20260503184048 17 301 8.0 25.7 0.00 0.00 0.00 32 1007.3
20260503183545 17 44 14.5 25.7 0.00 0.00 0.00 33 1007.3
20260503183045 17 32 6.4 17.7 0.00 0.00 0.00 33 1007.3
20260503182544 17 18 8.0 22.5 0.00 0.00 0.00 33 1007.3
20260503182044 17 85 11.3 22.5 0.00 0.00 0.00 35 1007.3
20260503181551 17 34 9.7 20.9 0.00 0.00 0.00 34 1007.6
20260503181044 17 338 8.0 24.1 0.00 0.00 0.00 34 1007.4
20260503180543 17 4 6.4 24.1 0.00 0.00 0.00 34 1007.5
20260503180049 17 311 1.6 24.1 0.00 0.00 0.00 37 1007.4
20260503175542 17 19 12.9 24.1 0.00 0.00 0.00 34 1007.6
20260503175041 17 68 9.7 20.9 0.00 0.00 0.00 32 1007.6
20260503174542 17 34 9.7 19.3 0.00 0.00 0.00 34 1007.6
20260503174042 17 354 11.3 20.9 0.00 0.00 0.00 34 1007.8
20260503173541 17 19 8.0 20.9 0.00 0.00 0.00 34 1007.7
20260503173040 17 32 6.4 17.7 0.00 0.00 0.00 34 1007.7
20260503172539 17 71 8.0 17.7 0.00 0.00 0.00 34 1007.7
20260503172039 17 27 9.7 16.1 0.00 0.00 0.00 33 1007.7
20260503171538 17 37 8.0 16.1 0.00 0.00 0.00 35 1007.7
20260503171038 17 13 9.7 20.9 0.00 0.00 0.00 35 1007.7
20260503170538 17 22 12.9 20.9 0.00 0.00 0.00 35 1007.8
20260503150520 15 4 6.4 27.4 0.00 0.00 0.00 50 1007.5
20260503131006 11 41 8.0 20.9 0.00 0.00 0.00 59 1007.0
20260503130508 11 10 6.4 20.9 0.00 0.00 0.00 60 1006.9
20260503110556 8 317 3.2 6.4 0.00 0.00 0.00 63 1004.9
20260503100105 9 278 4.8 8.0 0.00 0.00 0.00 62 1004.8
20260503081536 11 239 8.0 16.1 0.00 0.00 0.00 54 1005.2
20260503081029 12 236 8.0 17.7 0.00 0.00 0.00 54 1005.3
20260503080527 12 228 9.7 17.7 0.00 0.00 0.00 54 1005.4
20260503072521 12 242 8.0 14.5 0.00 0.00 0.00 52 1005.6
20260503072019 12 250 8.0 14.5 0.00 0.00 0.00 52 1005.5
20260503071519 13 258 8.0 14.5 0.00 0.00 0.00 52 1005.6
20260503071016 13 232 9.7 14.5 0.00 0.00 0.00 51 1005.6
20260503070517 13 257 8.0 14.5 0.00 0.00 0.00 51 1005.6
20260503055005 15 256 11.3 22.5 0.00 0.00 0.00 49 1006.2
20260503054504 15 266 12.9 30.6 0.00 0.00 0.00 48 1006.4
20260503054004 15 257 14.5 30.6 0.00 0.00 0.00 48 1006.4
20260503053503 15 264 19.3 35.4 0.00 0.00 0.00 47 1006.5
20260503053005 14 263 20.9 35.4 0.00 0.00 0.00 49 1006.5
20260503052600 14 249 9.7 20.9 0.00 0.00 0.00 52 1006.8
20260503052100 14 264 9.7 32.2 0.00 0.00 0.00 54 1006.8
20260503051559 14 269 16.1 33.8 0.00 0.00 0.00 53 1007.0
20260503051059 14 288 19.3 33.8 0.00 0.00 0.00 54 1007.0
20260503050558 14 259 17.7 33.8 0.00 0.00 0.00 53 1006.9
20260503050056 14 278 12.9 24.1 0.00 0.00 0.00 53 1007.1
20260503045558 14 274 14.5 25.7 0.00 0.00 0.00 53 1007.0
20260503045055 13 273 14.5 25.7 0.00 0.00 0.00 52 1007.2
20260503044557 13 263 12.9 17.7 0.00 0.00 0.00 52 1007.2
20260503044055 13 252 9.7 14.5 0.00 0.00 0.00 50 1007.3
20260503043553 13 262 8.0 14.5 0.00 0.00 0.00 49 1007.3
20260503043053 13 237 8.0 17.7 0.00 0.00 0.00 48 1007.4
20260503042553 12 253 11.3 17.7 0.00 0.00 0.00 48 1007.4
20260503042051 12 256 9.7 17.7 0.00 0.00 0.00 48 1007.5
20260503041551 12 249 11.3 16.1 0.00 0.00 0.00 49 1007.7
20260503041054 12 248 11.3 16.1 0.00 0.00 0.00 49 1007.7
20260503040550 12 240 9.7 16.1 0.00 0.00 0.00 49 1007.7
20260503040049 12 248 8.0 14.5 0.00 0.00 0.00 49 1007.7
20260503035549 12 243 8.0 14.5 0.00 0.00 0.00 48 1007.8
20260503035051 13 240 6.4 14.5 0.00 0.00 0.00 48 1007.9
20260503034547 13 248 4.8 9.7 0.00 0.00 0.00 47 1008.1
20260503034047 13 242 6.4 12.9 0.00 0.00 0.00 47 1008.1
20260503033544 13 237 6.4 12.9 0.00 0.00 0.00 46 1008.2
20260503033045 13 244 8.0 12.9 0.00 0.00 0.00 46 1008.3
20260503032544 13 252 8.0 12.9 0.00 0.00 0.00 46 1008.4
20260503032044 13 243 6.4 12.9 0.00 0.00 0.00 46 1008.4
20260503031546 13 248 6.4 11.3 0.00 0.00 0.00 47 1008.5
20260503031042 13 253 6.4 12.9 0.00 0.00 0.00 47 1008.6
20260503030542 13 257 6.4 12.9 0.00 0.00 0.00 47 1008.7
20260503030046 13 259 6.4 11.3 0.00 0.00 0.00 47 1008.7
20260503025540 13 233 6.4 11.3 0.00 0.00 0.00 47 1008.8
20260503025039 13 242 4.8 8.0 0.00 0.00 0.00 48 1008.9
20260503024537 13 242 4.8 9.7 0.00 0.00 0.00 48 1009.0
20260503024037 13 240 4.8 9.7 0.00 0.00 0.00 48 1009.1
20260503023537 13 222 3.2 8.0 0.00 0.00 0.00 47 1009.2
20260503023038 13 228 3.2 8.0 0.00 0.00 0.00 47 1009.2
20260503022538 13 186 0.0 9.7 0.00 0.00 0.00 47 1009.2
20260503022035 13 191 1.6 9.7 0.00 0.00 0.00 47 1009.3
20260503021535 14 208 1.6 8.0 0.00 0.00 0.00 47 1009.4
20260503021034 14 172 1.6 8.0 0.00 0.00 0.00 46 1009.4